Location: Peterborough
(44.3091°N, 78.3197°W)
Time: 06:38:08
(UTC-04:00)

Vanguard 3 - Pass Details

Date: 23 February 2024
Orbit: 510 x 3234 km, 33.3° (Epoch: 24 April)

Event Time Altitude Azimuth Distance (km) Brightness Sun altitude
Rises 00:16:03 0° 261° (W) 7,170 12.0 -55.6°
Reaches altitude 10° 00:21:16 10° 258° (WSW) 6,021 11.4 -55.7°
Enters shadow 00:22:48 13° 257° (WSW) 5,676 11.3 -55.7°
